Regional Weather Roundup
Issued by NWS

Home | Current Version | Previous Version | Graphics & Text | Print | Product List | Glossary Off
Versions: 1 2 3 4 5 6 7 8 9 10 11 12 13 14 15 16 17 18 19 20 21 22 23 24 25 26 27 28 29 30 31 32 33 34 35 36 37 38 39 40 41 42 43 44 45 46 47 48 49 50

000
ASUS43 KMKX 231113
RWRWI

WISCONSIN REGIONAL WEATHER ROUNDUP
NATIONAL WEATHER SERVICE MILWAUKEE/SULLIVAN WI
600 AM CDT SAT MAY 23 2015

NOTE: "FAIR" INDICATES FEW OR NO CLOUDS BELOW 12,000 FEET WITH NO
SIGNIFICANT WEATHER AND/OR OBSTRUCTIONS TO VISIBILITY.

WIZ001-002-006>008-014>016-023>028-231200-
NORTHWEST WISCONSIN

CITY           SKY/WX    TMP DP  RH WIND       PRES   REMARKS
SUPERIOR ARPT  CLEAR     42  37  81 SW8       30.21S
ASHLAND        CLEAR     50  37  61 SW6       30.22R
HAYWARD        CLEAR     37  34  89 CALM      30.25R
SIREN          CLEAR     40  38  91 CALM      30.24R
CUMBERLAND     CLEAR     41  37  87 CALM      30.25R
RICE LAKE      CLEAR     41  40  95 CALM      30.26S FOG
CHETEK         CLEAR     39  39 100 CALM      30.25S FOG
LADYSMITH      CLEAR     38  37  92 CALM      30.27S
EAU CLAIRE     CLEAR     41  39  93 CALM      30.24S FOG
MENOMONIE      CLEAR     46  43  92 CALM      30.24S
NEW RICHMOND   CLEAR     44  38  80 CALM      30.24R
OSCEOLA        CLEAR     41  41 100 CALM      30.26R FOG
$$

WIZ003>005-009-010-017-018-231200-
NORTH CENTRAL WISCONSIN

CITY           SKY/WX    TMP DP  RH WIND       PRES   REMARKS
MANITOWISH WTR CLEAR     34  34 100 CALM      30.25R
ARBOR VITAE    CLEAR     38  35  89 CALM      30.25S
WOODRUFF       CLEAR     38  35  89 CALM      30.25S
RHINELANDER    CLEAR     42  35  76 W5        30.28R
EAGLE RIVER    CLEAR     35  35 100 CALM      30.26R
LAND O LAKES   CLEAR     32  31  99 CALM      30.26R
PHILLIPS       CLEAR     36  35  96 CALM      30.25S
TOMAHAWK       CLEAR     32  30  94 CALM      30.28R
MEDFORD        CLEAR     40  36  86 CALM      30.27R
MERRILL        CLEAR     33  33  99 CALM      30.28S
$$

WIZ029-030-035-036-043>047-231200-
CENTRAL WISCONSIN

CITY           SKY/WX    TMP DP  RH WIND       PRES   REMARKS
WAUSAU         CLEAR     41  38  89 E6        30.28R
MOSINEE        CLEAR     43  39  87 S3        30.29R
MARSHFIELD     CLEAR     47  38  71 S3        30.28R
STEVENS POINT  CLEAR     38  33  84 CALM      30.29R
WAUPACA        CLEAR     41  37  84 CALM      30.29S
WAUTOMA        NOT AVBL
WISC RAPIDS    CLEAR     47  34  60 S3        30.30R
CAMP DOUGLAS   NOT AVBL
$$

WIZ011>013-019>022-031-037>040-048>050-231200-
NORTHEAST WISCONSIN

CITY           SKY/WX    TMP DP  RH WIND       PRES   REMARKS
ANTIGO         CLEAR     37  35  92 CALM      30.28S
SHAWANO        CLEAR     44  34  69 CALM      30.29S
OCONTO         CLEAR     32  32 100 CALM      30.29R
STURGEON BAY   CLEAR     45  27  49 S5        30.32R
GREEN BAY      CLEAR     42  36  79 CALM      30.30R
MANITOWOC      NOT AVBL
APPLETON       PTCLDY    45  30  57 VRB5      30.30R
CLINTONVILLE   CLEAR     37  34  87 CALM      30.29S
OSHKOSH        CLEAR     48  31  51 CALM      30.30R
$$

WIZ032>034-041-042-053>061-231200-
SOUTHWEST WISCONSIN

CITY           SKY/WX    TMP DP  RH WIND       PRES   REMARKS
LA CROSSE      PTCLDY    49  43  80 SE5       30.26R
SPARTA         CLEAR     36  35  97 CALM      30.28R
VIROQUA        PTCLDY    51  39  64 SE8       30.27S
BOSCOBEL       CLEAR     43  41  93 CALM      30.29R
PRAIRIE DU CHI PTCLDY    50  44  79 CALM      30.27S
PLATTEVILLE    MOCLDY    48  38  69 E3        30.29R
$$

WIZ056-057-062-063-064-067-068-231200-
SOUTH CENTRAL WISCONSIN

CITY           SKY/WX    TMP DP  RH WIND       PRES   REMARKS
REEDSBURG      CLEAR     46  37  72 CALM      30.29R
BARABOO/DELLS  CLEAR     53  29  40 S10       30.29R
LONE ROCK      NOT AVBL
MINERAL POINT  CLEAR     48  34  57 SE8       30.29R
MADISON        PTCLDY    46  34  62 CALM      30.31R
MIDDLETON      CLEAR     53  29  39 S3        30.30S
WATERTOWN      CLEAR     38  35  89 CALM      30.31R
MONROE         PTCLDY    50  34  53 S9        30.30R
JANESVILLE     CLEAR     43  34  70 CALM      30.31R
$$

WIZ051-052-058>065-066-070>072-231200-
SOUTHEAST WISCONSIN

CITY           SKY/WX    TMP DP  RH WIND       PRES   REMARKS
MILWAUKEE      PTCLDY    47  31  53 S5        30.32R
WAUKESHA       PTCLDY    46  30  53 SW5       30.33R
MILWAUKEE/TIMM CLEAR     43  32  65 CALM      30.31S
RACINE         CLEAR     46  35  65 S5        30.34R
BURLINGTON     CLEAR     38  35  90 CALM      30.31S
KENOSHA        CLEAR     44  35  70 SW3       30.33R
FOND DU LAC    CLEAR     43  31  62 CALM      30.31R
SHEBOYGAN      CLEAR     44  31  60 SW5       30.31R
WEST BEND      CLEAR     41  32  70 CALM      30.31R
JUNEAU         CLEAR     44  30  57 CALM      30.32R
$$

LSZ147-162-231200-
LAKE SUPERIOR

STATION/POSITION TIME  TEMP    WIND        PRES    WAVE
                       AIR SEA DIR/SP/G            HT/PER
                 (UTC) (F)     (DEG/KT/KT) (MB)    (FT/S)
W MID LAKE BUOY  0950   40 36  240/ 12/ 12   N/A     1
DEVILS ISLAND    1000   48     230/ 18/ 19   N/A
PORT WING        1000   40     170/  5/  6   N/A
SAXON HARBOR     1000   47     200/  3/  6   N/A
$$

LMZ867-665-643>646-231200-
LAKE MICHIGAN

STATION/POSITION TIME  TEMP    WIND        PRES    WAVE
                       AIR SEA DIR/SP/G            HT/PER
                 (UTC) (F)     (DEG/KT/KT) (MB)    (FT/S)
CHAMBERS ISLAND  1000   48     180/  4/  8   N/A
N MID LAKE BUOY  0950   40 36  200/  8/ 10   N/A     0
NORTHPORT PIER   0900   47     180/  4/  9   N/A
SISTER BAY       1047   49     170/  5/  8   N/A
KEWAUNEE LAKESHO 1000   39      CALM  /  3   N/A
SHEBOYGAN LAKESH 1000   50     200/  5/  5   N/A
PORT WASHINGTON  1000   51     260/  5/  7   N/A
ATWATER BUOY     1000   49 45  160/  4/  6   N/A
MILWAUKEE LAKESH 1000   52     140/  3/  4   N/A
S MID LAKE BUOY  0950   42 38  220/  4/  6   N/A     0
KENOSHA   LAKESH 1000   49      CALM  /  1   N/A
$$

TC  - TEMPERATURE IN CELSIUS
VSB - VISIBILITY IN STATUTE MILES
WCI - WIND CHILL INDEX
HX  - HEAT INDEX



USA.gov is the U.S. government's official web portal to all federal, state and local government web resources and services.